Regional Weather Roundup
Issued by NWS Goodland, KS

Home | Current Version | Previous Version | Text Only | Print | Product List | Glossary Off
Versions: 1 2 3 4 5 6 7 8 9 10 11 12 13 14 15 16 17 18 19 20 21 22 23 24 25 26 27 28 29 30 31 32 33 34 35 36 37 38 39 40 41 42 43 44 45 46 47 48 49 50

000
ASUS43 KGLD 260808
RWRGLD

GOODLAND FORECAST AREA HOURLY WEATHER ROUNDUP
NATIONAL WEATHER SERVICE GOODLAND KS
100 AM MST SUN FEB 26 2017

...OFFICIAL OBSERVATIONS...

CITY           SKY/WX    TMP DP  RH WIND       PRES   REMARKS
GOODLAND KS    CLEAR     13   5  70 NW3       29.84S
HILL CITY KS   CLOUDY    25  15  66 S6        29.88F
IMPERIAL NEB   CLOUDY    23  15  71 W7        29.86R
MCCOOK NEB     CLOUDY    26  16  65 W6        29.87S
AKRON CO       CLEAR     21  11  65 SE6       29.82R
BURLINGTON CO  CLEAR     17   5  59 SE6       29.83F
LIMON CO       CLEAR      3   0  87 N5        29.80S
$$

...UNOFFICIAL OBSERVATIONS...

CITY           SKY/WX    TMP DP  RH WIND       PRES   REMARKS
LENORA KS        N/A     27  32 100 CALM        N/A
SHARON SPRINGS   N/A     15   6  67 N6          N/A
TRENTON NEB      N/A     24  32 100 CALM        N/A
KIT CARSON CO    N/A     14   3  61 CALM        N/A
YUMA CO        FAIR      14  10  85 W5        29.84R
$$




USA.gov is the U.S. government's official web portal to all federal, state and local government web resources and services.